Simultaneous Nadir Overpasses (SNOs) Predictions

Prediction of SNOs between AQUA and NPP Satellite Orbit:

Table of predicted SNOs for the next 14.0 days since TLE Epoch: 10/18/2019
Index Date (AQUA) Time (AQUA) Lat,Lon (AQUA) SZA (AQUA ) Date (NPP) Time (NPP) Lat,Lon (NPP) SZA (NPP ) Distance(km) Time Diff (sec)
1 10/18/2019 22:37:54 76.40, 80.73 105.51 10/18/2019 22:38:39 76.39, 80.67 105.49 1.77 45
2 10/21/2019 14:05:09 -75.86, 27.26 73.01 10/21/2019 14:05:01 -75.86, 27.26 73.00 0.17 8
3 10/21/2019 14:54:14 76.82,-161.96 105.97 10/21/2019 14:55:24 76.82,-161.97 105.91 0.28 70
4 10/24/2019 05:32:23 75.13, -26.56 108.65 10/24/2019 05:31:24 75.13, -26.52 108.70 1.07 59
5 10/24/2019 06:21:27 -76.33, 144.61 72.62 10/24/2019 06:21:44 -76.33, 144.67 72.65 1.65 17
6 10/26/2019 21:48:40 75.71, 90.93 108.93 10/26/2019 21:48:06 75.71, 91.02 108.93 2.70 34
7 10/26/2019 22:37:54 -76.40, -99.27 71.82 10/26/2019 22:38:37 -76.39, -99.35 71.83 2.28 43
8 10/29/2019 14:05:07 75.78,-152.98 109.71 10/29/2019 14:04:59 75.77,-153.02 109.73 1.10 8
9 10/29/2019 14:54:13 -76.85, 18.16 71.44 10/29/2019 14:55:21 -76.85, 18.16 71.50 0.19 68
10 11/01/2019 05:32:21 -75.26, 153.78 68.92 11/01/2019 05:31:20 -75.27, 153.86 68.88 2.49 61




NCC Satellite Simultaneous Nadir Overpasses (SNOs) Prediction Service
